SCP
0 0 0 0 0 0 0 0 0 0 0 0 0 0 0 0 0 0 0 0 0 0 0 0 0 0 0 0 0 0 0 0 0 0 0 0 0 0
0 0 0 0 0 0 0 0 0 0 0 0 0 0 0 0 0 0 0 0 0 0 0 0 0 0 0 0 0 0 0 0 0 0 0 0 0 0
0 0 0 0 0 0 0 0 0 0 0 0 0 0 0 0 0 0 0 0 0 0 0 0 0 0 0 0 0 0 0 0 -0 0 -0 0 0 0
0 0 0 0 0 0 0 0 0 0 0 0 0 0 0 0 0 0 0 0 0 0 0 0 0 0 0 0 0 0 -0 -0 -0 -0 -0 -0 0 -0
0 0 0 0 0 0 0 0 0 0 0 0 0 0 0 0 0 0 0 0 0 0 0 0 0 0 0 0 0 0 -0 -0 -0 -0 -0 0 0 -0
0 0 0 0 0 0 0 0 0 0 0 0 0 0 0 0 0 0 0 0 0 0 0 0 0 0 0 0 0 0 -0 -0 -0 0 0 0 0 0
0 0 0 0 0 0 0 0 0 0 0 0 0 0 0 0 0 0 0 0 0 0 0 0 0 0 0 0 0 0 0 0 -0 0 0 0 0 0
0 0 0 0 0 0 0 0 0 0 0 0 0 0 0 0 0 0 0 0 0 0 0 0 0 0 0 0 0 0 0 0 0 0 0 -0 -0 0
0 0 0 0 0 0 0 0 0 0 0 0 0 0 0 0 0 0 0 0 0 0 0 0 0 0 0 0 0 0 0 0 0 0 0 0 0 0
0 0 0 0 0 0 0 0 0 0 0 0 0 0 0 0 0 0 0 0 0 0 0 0 0 0 0 0 0 0 0 0 0 0 0 0 0 0
0 0 0 0 0 0 0 0 0 0 0 0 0 0 0 0 0 0 0 0 0 0 0 0 0 0 0 0 0 0 0 0 0 0 0 0 0 0
0 0 0 0 0 0 0 0 0 0 0 0 0 0 0 0 0 0 0 0 0 0 0 0 0 0 0 0 0 0 0 0 0 0 0 -0 -0 -0
0 0 0 0 0 0 0 0 0 0 0 0 0 0 0 0 0 0 0 0 0 0 0 0 0 0 0 0 0 0 0 0 0 0 0 0 -0 -0
0 0 0 0 0 0 0 0 0 0 0 0 0 0 0 0 0 0 0 0 0 0 0 0 0 0 0 0 0 0 0 0 0 0 0 0 0 0
0 0 0 0 0 0 0 0 0 0 0 0 0 0 0 0 0 0 0 0 0 0 0 0 0 0 0 0 0 0 0 0 0 0 0 0 0 0
0 0 0 0 0 0 0 0 0 0 0 0 0 0 0 0 0 0 0 0 0 0 0 0 0 0 0 0 0 0 0 0 0 0 0 0 0 0
0 0 0 0 0 0 0 0 0 0 0 0 0 0 0 0 0 0 0 0 0 0 0 0 0 0 0 0 0 0 0 0 0 0 0 0 0 0
0 0 0 0 0 0 0 0 0 0 0 0 0 0 0 0 0 0 0 0 0 0 0 0 0 0 0 0 0 0 0 0 0 0 0 0 0 0
0 0 0 0 0 0 0 0 0 0 0 0 0 0 0 0 0 0 0 0 0 0 0 0 0 0 0 0 0 0 0 0 0 0 0 0 0 0
0 0 0 0 0 0 0 0 0 0 0 0 0 0 0 0 0 0 0 0 0 0 0 0 0 0 0 0 0 0 0 0 0 0 0 0 0 0
0 0 0 0 0 0 0 0 0 0 0 0 0 0 0 0 0 0 0 0 0 0 0 0 0 0 0 0 0 0 0 0 0 0 0 0 0 0
0 0 0 0 0 0 0 0 0 0 0 0 0 0 0 0 0 0 0 0 0 0 0 0 0 0 0 0 0 0 0 0 0 0 0 0 0 0
0 0 0 0 0 0 0 0 0 0 0 0 0 0 0 0 0 0 0 0 0 0 0 0 0 0 0 0 0 0 0 0 0 0 0 0 0 0
Wind_Speed_500mb
21 23 27 30 32 34 38 41 44 37 41 47 56 61 63 64 62 60 61 65 66 71 73 77 77 78 80 83 86 89 87 82 82 80 81 83 84 84
18 22 26 29 30 31 33 36 39 40 33 51 53 56 58 57 57 56 59 64 62 66 70 71 70 76 79 86 94 90 82 75 76 78 82 83 83 84
17 21 24 26 27 29 30 32 35 35 39 44 48 50 50 53 51 53 59 63 59 66 67 64 69 71 71 79 85 86 89 93 89 86 88 87 81 82
18 20 22 24 25 26 28 30 30 33 39 42 45 45 48 47 50 57 61 63 59 61 60 58 64 63 62 70 76 84 89 93 88 92 91 107 102 90
16 18 20 20 21 24 27 27 28 29 32 38 40 42 43 44 49 52 57 60 59 58 53 52 56 55 60 69 74 79 83 88 91 93 102 109 110 139
14 15 16 17 20 23 24 26 27 30 31 32 35 39 39 40 48 60 57 54 55 59 48 47 48 46 58 67 75 81 85 89 88 88 93 101 113 128
12 13 13 15 18 22 25 27 26 27 27 31 32 34 34 40 49 54 56 57 57 60 53 48 50 52 60 69 73 77 85 86 88 88 89 91 99 116
12 13 13 15 20 23 26 27 27 25 24 28 28 28 25 32 41 49 53 57 62 53 54 50 49 52 55 65 69 74 80 83 86 90 91 91 93 103
15 16 15 14 17 18 20 21 20 18 22 27 25 23 22 27 40 47 45 45 48 42 52 53 56 54 47 52 63 66 73 78 82 85 88 86 88 90
19 17 15 15 16 17 16 16 15 16 19 22 22 18 19 25 33 42 47 44 39 41 46 58 57 59 47 42 62 61 64 69 76 82 84 81 80 80
22 19 17 18 18 20 21 16 12 13 17 21 20 18 20 26 34 40 43 46 45 42 37 53 55 62 50 41 60 55 58 62 66 69 74 76 73 72
25 24 22 21 23 24 23 19 16 12 13 19 21 19 22 29 37 42 44 39 39 45 41 55 53 59 42 42 57 53 58 56 60 62 62 66 69 69
29 26 25 26 27 27 25 21 22 19 17 18 19 22 26 31 37 44 41 36 35 37 44 50 51 54 49 59 56 48 58 53 56 55 57 60 63 67
30 27 27 29 31 30 28 24 24 24 25 26 27 28 31 33 34 35 35 34 36 38 38 45 48 47 47 51 48 50 49 42 48 48 49 49 52 57
31 28 28 32 34 33 32 31 28 28 30 32 33 33 35 35 34 32 32 34 38 39 37 42 44 44 40 40 42 44 45 33 41 40 43 47 48 46
33 32 33 36 37 38 37 34 33 31 31 32 32 33 35 37 38 37 35 33 34 35 38 42 43 41 36 33 32 33 33 26 31 33 36 38 39 40
39 39 39 41 42 42 37 37 36 35 35 35 35 35 36 36 38 39 38 37 34 37 38 35 38 34 31 30 25 27 26 26 24 25 27 31 34 35
48 47 44 42 45 41 37 38 38 38 38 38 37 37 36 36 37 40 40 38 37 41 38 35 31 28 25 25 22 19 21 22 21 22 23 23 24 26
54 48 44 42 39 39 39 40 40 40 40 40 39 37 37 37 36 38 37 39 38 35 34 31 27 24 22 19 19 17 21 18 20 21 20 21 21 20
51 47 45 42 41 40 41 42 41 42 41 40 39 39 38 37 36 39 41 39 34 31 29 26 24 23 22 22 22 19 21 20 18 19 20 20 17 18
50 50 46 45 45 44 44 44 44 43 43 42 40 39 38 36 36 39 39 36 33 30 26 24 23 22 22 23 23 22 21 23 23 23 22 20 17 15
52 51 49 50 49 48 47 46 44 44 44 42 40 38 39 39 38 38 37 32 32 29 26 25 23 22 23 24 26 27 25 22 25 25 27 25 20 15
55 55 55 54 53 51 49 47 45 45 44 42 41 39 38 39 39 37 36 33 31 30 27 25 25 25 25 26 29 29 29 29 27 24 27 27 26 26
Wind_Direction_500mb
315 327 333 335 332 334 336 335 339 338 340 343 348 357 1 5 7 11 11 11 9 5 2 2 1 358 355 352 347 339 332 328 324 320 316 312 307 301
321 331 332 333 329 333 335 336 336 337 335 341 353 356 359 4 9 13 10 9 7 1 4 5 5 8 9 7 5 0 358 351 347 339 331 322 314 305
324 330 329 329 328 333 336 338 339 340 341 348 352 357 357 2 11 15 10 9 9 4 10 10 14 14 19 22 17 20 21 18 15 8 3 352 333 317
325 324 329 331 331 335 339 342 344 345 346 349 353 354 358 5 10 14 13 17 15 11 14 16 19 17 29 27 20 18 20 15 11 10 9 14 9 356
314 322 329 330 334 340 343 344 349 352 351 349 348 352 357 2 6 13 16 19 22 17 16 18 24 25 24 20 18 12 10 11 10 10 12 12 12 12
308 320 325 332 339 342 348 350 354 352 349 344 345 348 355 4 6 2 10 17 13 22 17 20 24 20 15 14 14 11 9 8 9 9 14 11 13 18
300 308 317 326 333 350 357 355 350 345 342 342 341 347 354 1 3 4 3 3 8 13 13 10 9 3 4 4 9 6 6 10 9 10 16 13 17 23
284 293 305 323 343 351 352 351 337 332 335 333 336 342 349 352 359 1 360 0 360 357 4 9 358 349 352 358 2 1 4 9 12 13 18 16 19 25
274 283 296 316 337 339 337 332 320 322 326 325 331 332 338 345 354 354 355 352 348 348 351 0 359 360 345 351 357 358 1 6 10 13 20 20 21 27
268 273 287 303 313 316 315 308 314 320 318 315 316 317 321 336 342 344 342 339 340 345 348 349 351 358 351 348 353 354 358 3 6 9 15 28 23 28
266 272 279 286 292 303 298 304 315 305 309 310 305 295 307 319 326 331 331 330 336 347 341 345 345 348 353 348 350 351 354 0 7 10 13 22 34 34
265 269 274 283 290 291 293 303 309 307 299 298 295 286 296 307 314 319 322 325 335 342 334 338 344 348 345 342 349 348 354 0 8 14 20 23 32 42
264 268 277 287 286 283 284 292 301 303 294 283 274 276 287 295 301 308 312 317 329 331 328 334 337 340 340 336 347 351 352 358 11 18 25 29 28 35
261 267 275 282 283 283 279 280 284 284 285 280 278 280 283 288 296 301 305 312 318 320 325 328 331 332 334 335 341 345 354 359 10 21 27 29 33 36
261 268 272 277 278 279 278 275 272 278 280 280 285 290 293 296 299 303 306 308 313 317 323 326 324 326 327 329 333 343 353 357 6 14 22 22 29 34
264 269 272 272 274 276 271 266 271 275 278 281 285 288 290 296 302 303 301 301 306 313 320 318 318 321 321 324 330 338 346 355 358 11 20 17 19 30
264 268 269 268 270 272 268 265 268 272 276 281 285 289 292 294 294 295 297 301 305 307 310 308 311 317 319 320 325 335 342 347 356 8 11 14 17 23
263 265 266 262 264 266 267 267 269 273 277 283 285 286 288 289 291 293 296 299 306 308 308 309 312 316 320 316 321 330 337 343 353 1 6 13 16 20
259 264 265 264 264 264 265 266 269 271 275 278 281 285 286 285 288 288 291 296 304 303 304 307 311 317 321 322 318 321 332 338 346 350 356 5 11 14
259 260 262 262 264 265 265 265 265 269 272 274 277 278 279 280 285 287 292 296 296 297 298 301 305 312 315 316 318 320 324 329 334 338 343 350 354 355
257 259 262 262 262 262 262 263 266 268 271 274 274 275 275 276 281 286 291 291 291 290 291 292 296 301 305 309 313 317 320 320 322 324 328 335 338 334
257 260 261 260 261 261 261 262 264 267 268 268 269 270 273 277 279 281 281 280 282 284 285 288 293 299 304 306 308 310 311 310 310 312 314 316 320 313
261 261 259 258 259 260 260 262 263 263 265 266 266 266 269 274 276 276 275 275 275 278 278 281 287 292 296 299 301 304 307 307 305 301 302 303 307 311
Wind_Speed_850mb
21 23 27 30 32 34 38 41 44 37 41 47 56 61 63 64 62 60 61 65 66 71 73 77 77 78 80 83 86 89 87 82 82 80 81 83 84 84
18 22 26 29 30 31 33 36 39 40 33 51 53 56 58 57 57 56 59 64 62 66 70 71 70 76 79 86 94 90 82 75 76 78 82 83 83 84
17 21 24 26 27 29 30 32 35 35 39 44 48 50 50 53 51 53 59 63 59 66 67 64 69 71 71 79 85 86 89 93 89 86 88 87 81 82
18 20 22 24 25 26 28 30 30 33 39 42 45 45 48 47 50 57 61 63 59 61 60 58 64 63 62 70 76 84 89 93 88 92 91 107 102 90
16 18 20 20 21 24 27 27 28 29 32 38 40 42 43 44 49 52 57 60 59 58 53 52 56 55 60 69 74 79 83 88 91 93 102 109 110 139
14 15 16 17 20 23 24 26 27 30 31 32 35 39 39 40 48 60 57 54 55 59 48 47 48 46 58 67 75 81 85 89 88 88 93 101 113 128
12 13 13 15 18 22 25 27 26 27 27 31 32 34 34 40 49 54 56 57 57 60 53 48 50 52 60 69 73 77 85 86 88 88 89 91 99 116
12 13 13 15 20 23 26 27 27 25 24 28 28 28 25 32 41 49 53 57 62 53 54 50 49 52 55 65 69 74 80 83 86 90 91 91 93 103
15 16 15 14 17 18 20 21 20 18 22 27 25 23 22 27 40 47 45 45 48 42 52 53 56 54 47 52 63 66 73 78 82 85 88 86 88 90
19 17 15 15 16 17 16 16 15 16 19 22 22 18 19 25 33 42 47 44 39 41 46 58 57 59 47 42 62 61 64 69 76 82 84 81 80 80
22 19 17 18 18 20 21 16 12 13 17 21 20 18 20 26 34 40 43 46 45 42 37 53 55 62 50 41 60 55 58 62 66 69 74 76 73 72
25 24 22 21 23 24 23 19 16 12 13 19 21 19 22 29 37 42 44 39 39 45 41 55 53 59 42 42 57 53 58 56 60 62 62 66 69 69
29 26 25 26 27 27 25 21 22 19 17 18 19 22 26 31 37 44 41 36 35 37 44 50 51 54 49 59 56 48 58 53 56 55 57 60 63 67
30 27 27 29 31 30 28 24 24 24 25 26 27 28 31 33 34 35 35 34 36 38 38 45 48 47 47 51 48 50 49 42 48 48 49 49 52 57
31 28 28 32 34 33 32 31 28 28 30 32 33 33 35 35 34 32 32 34 38 39 37 42 44 44 40 40 42 44 45 33 41 40 43 47 48 46
33 32 33 36 37 38 37 34 33 31 31 32 32 33 35 37 38 37 35 33 34 35 38 42 43 41 36 33 32 33 33 26 31 33 36 38 39 40
39 39 39 41 42 42 37 37 36 35 35 35 35 35 36 36 38 39 38 37 34 37 38 35 38 34 31 30 25 27 26 26 24 25 27 31 34 35
48 47 44 42 45 41 37 38 38 38 38 38 37 37 36 36 37 40 40 38 37 41 38 35 31 28 25 25 22 19 21 22 21 22 23 23 24 26
54 48 44 42 39 39 39 40 40 40 40 40 39 37 37 37 36 38 37 39 38 35 34 31 27 24 22 19 19 17 21 18 20 21 20 21 21 20
51 47 45 42 41 40 41 42 41 42 41 40 39 39 38 37 36 39 41 39 34 31 29 26 24 23 22 22 22 19 21 20 18 19 20 20 17 18
50 50 46 45 45 44 44 44 44 43 43 42 40 39 38 36 36 39 39 36 33 30 26 24 23 22 22 23 23 22 21 23 23 23 22 20 17 15
52 51 49 50 49 48 47 46 44 44 44 42 40 38 39 39 38 38 37 32 32 29 26 25 23 22 23 24 26 27 25 22 25 25 27 25 20 15
55 55 55 54 53 51 49 47 45 45 44 42 41 39 38 39 39 37 36 33 31 30 27 25 25 25 25 26 29 29 29 29 27 24 27 27 26 26
Wind_Direction_850mb
315 327 333 335 332 334 336 335 339 338 340 343 348 357 1 5 7 11 11 11 9 5 2 2 1 358 355 352 347 339 332 328 324 320 316 312 307 301
321 331 332 333 329 333 335 336 336 337 335 341 353 356 359 4 9 13 10 9 7 1 4 5 5 8 9 7 5 0 358 351 347 339 331 322 314 305
324 330 329 329 328 333 336 338 339 340 341 348 352 357 357 2 11 15 10 9 9 4 10 10 14 14 19 22 17 20 21 18 15 8 3 352 333 317
325 324 329 331 331 335 339 342 344 345 346 349 353 354 358 5 10 14 13 17 15 11 14 16 19 17 29 27 20 18 20 15 11 10 9 14 9 356
314 322 329 330 334 340 343 344 349 352 351 349 348 352 357 2 6 13 16 19 22 17 16 18 24 25 24 20 18 12 10 11 10 10 12 12 12 12
308 320 325 332 339 342 348 350 354 352 349 344 345 348 355 4 6 2 10 17 13 22 17 20 24 20 15 14 14 11 9 8 9 9 14 11 13 18
300 308 317 326 333 350 357 355 350 345 342 342 341 347 354 1 3 4 3 3 8 13 13 10 9 3 4 4 9 6 6 10 9 10 16 13 17 23
284 293 305 323 343 351 352 351 337 332 335 333 336 342 349 352 359 1 360 0 360 357 4 9 358 349 352 358 2 1 4 9 12 13 18 16 19 25
274 283 296 316 337 339 337 332 320 322 326 325 331 332 338 345 354 354 355 352 348 348 351 0 359 360 345 351 357 358 1 6 10 13 20 20 21 27
268 273 287 303 313 316 315 308 314 320 318 315 316 317 321 336 342 344 342 339 340 345 348 349 351 358 351 348 353 354 358 3 6 9 15 28 23 28
266 272 279 286 292 303 298 304 315 305 309 310 305 295 307 319 326 331 331 330 336 347 341 345 345 348 353 348 350 351 354 0 7 10 13 22 34 34
265 269 274 283 290 291 293 303 309 307 299 298 295 286 296 307 314 319 322 325 335 342 334 338 344 348 345 342 349 348 354 0 8 14 20 23 32 42
264 268 277 287 286 283 284 292 301 303 294 283 274 276 287 295 301 308 312 317 329 331 328 334 337 340 340 336 347 351 352 358 11 18 25 29 28 35
261 267 275 282 283 283 279 280 284 284 285 280 278 280 283 288 296 301 305 312 318 320 325 328 331 332 334 335 341 345 354 359 10 21 27 29 33 36
261 268 272 277 278 279 278 275 272 278 280 280 285 290 293 296 299 303 306 308 313 317 323 326 324 326 327 329 333 343 353 357 6 14 22 22 29 34
264 269 272 272 274 276 271 266 271 275 278 281 285 288 290 296 302 303 301 301 306 313 320 318 318 321 321 324 330 338 346 355 358 11 20 17 19 30
264 268 269 268 270 272 268 265 268 272 276 281 285 289 292 294 294 295 297 301 305 307 310 308 311 317 319 320 325 335 342 347 356 8 11 14 17 23
263 265 266 262 264 266 267 267 269 273 277 283 285 286 288 289 291 293 296 299 306 308 308 309 312 316 320 316 321 330 337 343 353 1 6 13 16 20
259 264 265 264 264 264 265 266 269 271 275 278 281 285 286 285 288 288 291 296 304 303 304 307 311 317 321 322 318 321 332 338 346 350 356 5 11 14
259 260 262 262 264 265 265 265 265 269 272 274 277 278 279 280 285 287 292 296 296 297 298 301 305 312 315 316 318 320 324 329 334 338 343 350 354 355
257 259 262 262 262 262 262 263 266 268 271 274 274 275 275 276 281 286 291 291 291 290 291 292 296 301 305 309 313 317 320 320 322 324 328 335 338 334
257 260 261 260 261 261 261 262 264 267 268 268 269 270 273 277 279 281 281 280 282 284 285 288 293 299 304 306 308 310 311 310 310 312 314 316 320 313
261 261 259 258 259 260 260 262 263 263 265 266 266 266 269 274 276 276 275 275 275 278 278 281 287 292 296 299 301 304 307 307 305 301 302 303 307 311